This demonstration page uses our WeatherBlox Daily Observations layout. Learn more.

38.88101, -77.10428

Hourly Observations for August 18, 2017

Temp ( °F °C ) Dew Point ( °F °C ) Humidity (%) Winds ( mph kmh ) Pressure ( in mb ) Visibility ( mi km ) Precip ( " mm )
12:52 am 00:52 Mostly Cloudy 79 26.1 75 23.9 88 88 S 12 19 29.9 1013 10 16.0934 0 0
1:52 am 01:52 Mostly Cloudy 80 26.7 76 24.4 87 87 S 10 17 29.89 1012 10 16.0934 0 0
2:52 am 02:52 Partly Cloudy 79 26.1 75 23.9 88 88 SSW 8 13 29.89 1012 10 16.0934 0 0
3:52 am 03:52 Mostly Cloudy 79 26.1 76 24.4 90 90 S 10 17 29.87 1012 10 16.0934 0 0
4:52 am 04:52 Mostly Cloudy 78 25.6 76 24.4 93 93 S 9 15 29.86 1011 10 16.0934 0 0
5:52 am 05:52 Cloudy 78 25.6 76 24.4 93 93 S 7 11 29.86 1011 10 16.0934 0 0
6:52 am 06:52 Cloudy 78 25.6 76 24.4 93 93 S 9 15 29.87 1012 10 16.0934 0 0
7:03 am 07:03 Cloudy 78 25.6 76 24.4 93 93 S 7 11 29.88 1012 10 16.0934 0 0
7:52 am 07:52 Cloudy with Thunderstorms 78 25.6 76 24.4 93 93 S 9 15 29.88 1012 10 16.0934 0 0
8:06 am 08:06 Cloudy 79 26.1 77 25 94 94 SSW 8 13 29.88 1012 10 16.0934 0 0
8:32 am 08:32 Cloudy with Thunderstorms 79 26.1 77 25 94 94 S 7 11 29.88 1012 10 16.0934 0 0
8:52 am 08:52 Cloudy 80 26.7 77 25 90 90 SW 8 13 29.88 1012 10 16.0934 0 0
9:52 am 09:52 Cloudy 81 27.2 77 25 88 88 SSW 10 17 29.88 1012 10 16.0934 0 0
10:52 am 10:52 Mostly Cloudy 83 28.3 77 25 82 82 SSW 7 11 29.87 1012 10 16.0934 0 0
11:02 am 11:02 Mostly Cloudy 83 28.3 77 25 82 82 S 9 15 29.88 1012 10 16.0934 0 0
11:14 am 11:14 Mostly Cloudy 83 28.3 78 25.6 85 85 S 10 17 29.88 1012 10 16.0934 0 0
11:52 am 11:52 Mostly Cloudy 85 29.4 79 26.1 82 82 SSE 9 15 29.86 1011 10 16.0934 0 0
12:52 pm 12:52 Partly Cloudy 87 30.6 79 26.1 77 77 SSE 10 17 29.83 1010 10 16.0934 0 0
1:52 pm 13:52 Partly Cloudy 89 31.7 80 26.7 75 75 S 12 19 29.81 1010 10 16.0934 0 0
2:52 pm 14:52 Partly Cloudy 90 32.2 80 26.7 73 73 SSE 13 20 29.78 1009 10 16.0934 0 0
3:52 pm 15:52 Mostly Cloudy 90 32.2 80 26.7 73 73 S 13 20 29.76 1008 10 16.0934 0 0
4:52 pm 16:52 Mostly Cloudy 91 32.8 80 26.7 70 70 S 13 20 29.73 1007 10 16.0934 0 0
5:25 pm 17:25 Windy with Storms Likely 89 31.7 78 25.6 70 70 WSW 26 43 29.77 1008 2 3.21868 0 0.0254
5:27 pm 17:27 Cloudy with Thunderstorms 86 30 78 25.6 77 77 WSW 21 33 29.77 1008 1 1.60934 0.02 0.508
5:30 pm 17:30 Cloudy with Heavy Thunderstorms 83 28.3 77 25 82 82 W 14 22 29.77 1008 1 1.60934 0.07 1.778
5:38 pm 17:38 Cloudy with Heavy Thunderstorms 81 27.2 75 23.9 82 82 Calm 29.74 1007 5 8.0467 0.22 5.588
5:52 pm 17:52 Cloudy with Light Thunderstorms 83 28.3 77 25 82 82 S 13 20 29.75 1007 9 14.48406 0.22 5.588
5:55 pm 17:55 Windy with Storms Likely 83 28.3 78 25.6 85 85 SW 21 33 29.77 1008 1 1.60934 0 0.0254
6:01 pm 18:01 Windy with Storms Likely 81 27.2 77 25 88 88 SW 22 35 29.77 1008 5 8.0467 0.11 2.794
6:06 pm 18:06 Windy with Storms Likely 81 27.2 77 25 88 88 WSW 22 35 29.77 1008 2.5 4.02335 0.11 2.794
6:11 pm 18:11 Cloudy with Light Thunderstorms 80 26.7 75 23.9 85 85 WSW 13 20 29.77 1008 5 8.0467 0.15 3.81
6:25 pm 18:25 Cloudy with Light Thunderstorms 79 26.1 75 23.9 88 88 W 8 13 29.8 1009 5 8.0467 0.25 6.35
6:52 pm 18:52 Mostly Cloudy with Light Thunderstorms 80 26.7 76 24.4 87 87 NW 7 11 29.8 1009 9 14.48406 0.29 7.366
7:00 pm 19:00 Cloudy 80 26.7 77 25 90 90 N 10 17 29.8 1009 10 16.0934 0 0.0254
7:28 pm 19:28 Mostly Cloudy with Nearby Thunderstorms 80 26.7 76 24.4 87 87 N 8 13 29.77 1008 10 16.0934 0 0.0254
7:52 pm 19:52 Cloudy with Thunderstorms 80 26.7 76 24.4 87 87 Calm 29.81 1010 10 16.0934 0 0.0254
8:08 pm 20:08 Mostly Cloudy with Thunderstorms 80 26.7 75 23.9 85 85 Calm 29.8 1009 10 16.0934 0 0
8:52 pm 20:52 Mostly Cloudy with Thunderstorms 80 26.7 77 25 90 90 S 12 19 29.83 1010 10 16.0934 0 0
9:06 pm 21:06 Mostly Cloudy with Nearby Thunderstorms 79 26.1 77 25 94 94 SSE 9 15 29.83 1010 10 16.0934 0 0
9:15 pm 21:15 Mostly Cloudy with Thunderstorms 80 26.7 77 25 90 90 S 8 13 29.85 1011 10 16.0934 0 0
9:30 pm 21:30 Mostly Cloudy with Nearby Thunderstorms 79 26.1 77 25 94 94 SSE 6 9 29.85 1011 10 16.0934 0 0
9:52 pm 21:52 Mostly Cloudy 79 26.1 77 25 94 94 SSE 6 9 29.86 1011 10 16.0934 0 0
10:52 pm 22:52 Mostly Cloudy 78 25.6 76 24.4 93 93 S 5 7 29.87 1011 10 16.0934 0 0
11:52 pm 23:52 Cloudy 78 25.6 77 25 97 97 S 6 9 29.85 1011 10 16.0934 0 0

Powered by AerisWeather